"read_dt","SO2 (ppb)","flags","PMT voltage (V)","lamp voltage (V)","lamp intensity (Hz)","internal temp (C)","react chamber temp (C)","sample flow (l/min)","pres (mmHg)","SO2 bkg (ppb)","SO2 coefficient"
2017-05-24 00:00:00,1743E-3,5C000400,-0724,0836,11991,028.6,045.5,0.219,748.2,01.17,0.508
2017-05-24 00:01:00,1876E-3,5C000400,-0724,0836,11957,028.6,045.5,0.219,748.2,01.17,0.508
2017-05-24 00:02:00,1781E-3,5C000400,-0724,0837,12232,028.6,045.5,0.219,748.2,01.17,0.508
2017-05-24 00:03:00,1818E-3,5C000400,-0724,0836,12072,028.7,045.5,0.219,748.2,01.17,0.508
2017-05-24 00:04:00,1749E-3,5C000400,-0724,0836,12069,028.6,045.5,0.220,748.2,01.17,0.508
2017-05-24 00:05:00,1807E-3,5C000400,-0724,0836,12084,028.7,045.5,0.219,748.2,01.17,0.508
2017-05-24 00:06:00,1785E-3,5C000400,-0724,0837,11881,028.7,045.5,0.219,748.2,01.17,0.508
2017-05-24 00:07:00,1864E-3,5C000400,-0724,0837,12076,028.7,045.5,0.219,748.1,01.17,0.508
2017-05-24 00:08:00,1796E-3,5C000400,-0724,0836,12029,028.7,045.5,0.219,748.1,01.17,0.508
2017-05-24 00:09:00,1883E-3,5C000400,-0724,0837,11968,028.7,045.5,0.219,748.1,01.17,0.508
2017-05-24 00:10:00,1812E-3,5C000400,-0724,0836,12171,028.7,045.5,0.220,748.1,01.17,0.508
2017-05-24 00:11:00,1819E-3,5C000400,-0724,0836,12035,028.7,045.5,0.219,748.1,01.17,0.508
2017-05-24 00:12:00,1722E-3,5C000400,-0724,0836,12161,028.7,045.5,0.219,748.1,01.17,0.508
2017-05-24 00:13:00,1830E-3,5C000400,-0724,0837,12079,028.7,045.5,0.219,748.0,01.17,0.508
2017-05-24 00:14:00,1728E-3,5C000400,-0724,0836,11939,028.7,045.5,0.219,748.1,01.17,0.508
2017-05-24 00:15:00,1771E-3,5C000400,-0724,0836,11956,028.7,045.5,0.219,748.1,01.17,0.508
2017-05-24 00:16:00,1771E-3,5C000400,-0724,0836,12111,028.7,045.5,0.219,748.1,01.17,0.508
2017-05-24 00:17:00,1770E-3,5C000400,-0724,0837,11970,028.7,045.5,0.219,748.1,01.17,0.508
2017-05-24 00:18:00,1698E-3,5C000400,-0724,0837,12196,028.7,045.5,0.219,748.1,01.17,0.508
2017-05-24 00:19:00,1792E-3,5C000400,-0724,0836,12170,028.8,045.5,0.219,748.1,01.17,0.508
2017-05-24 00:20:00,1766E-3,5C000400,-0724,0837,12095,028.8,045.5,0.219,748.1,01.17,0.508
2017-05-24 00:21:00,1694E-3,5C000400,-0724,0836,11971,028.8,045.5,0.219,748.1,01.17,0.508
2017-05-24 00:22:00,1852E-3,5C000400,-0724,0836,12088,028.8,045.5,0.219,748.1,01.17,0.508
2017-05-24 00:23:00,1853E-3,5C000400,-0724,0837,12146,028.8,045.5,0.219,748.1,01.17,0.508
2017-05-24 00:24:00,1947E-3,5C000400,-0724,0837,12102,028.8,045.5,0.219,748.1,01.17,0.508
2017-05-24 00:25:00,1698E-3,5C000400,-0724,0837,12061,028.8,045.5,0.219,748.0,01.17,0.508
2017-05-24 00:26:00,1708E-3,5C000400,-0724,0836,12005,028.8,045.5,0.219,748.0,01.17,0.508
2017-05-24 00:27:00,1810E-3,5C000400,-0724,0836,12033,028.8,045.5,0.219,748.0,01.17,0.508
2017-05-24 00:28:00,1835E-3,5C000400,-0724,0837,12057,028.8,045.5,0.219,748.0,01.17,0.508
2017-05-24 00:29:00,1867E-3,5C000400,-0724,0836,12015,028.8,045.5,0.219,748.0,01.17,0.508
2017-05-24 00:30:00,1901E-3,5C000400,-0724,0836,12115,028.8,045.5,0.219,748.0,01.17,0.508
2017-05-24 00:31:00,1679E-3,5C000400,-0724,0836,12081,028.8,045.5,0.219,748.0,01.17,0.508
2017-05-24 00:32:00,1681E-3,5C000400,-0724,0837,12166,028.9,045.5,0.219,748.0,01.17,0.508
2017-05-24 00:33:00,1801E-3,5C000400,-0724,0837,12079,028.9,045.5,0.219,748.0,01.17,0.508
2017-05-24 00:34:00,1827E-3,5C000400,-0724,0837,12090,028.9,045.5,0.219,748.0,01.17,0.508
2017-05-24 00:35:00,1838E-3,5C000400,-0724,0838,12006,028.9,045.5,0.219,748.0,01.17,0.508
2017-05-24 00:36:00,1805E-3,5C000400,-0724,0836,12060,028.9,045.5,0.219,748.0,01.17,0.508
2017-05-24 00:37:00,1711E-3,5C000400,-0724,0836,12024,028.9,045.5,0.219,748.0,01.17,0.508
2017-05-24 00:38:00,1738E-3,5C000400,-0724,0837,12294,028.9,045.5,0.219,748.0,01.17,0.508
2017-05-24 00:39:00,1775E-3,5C000400,-0724,0837,12179,028.9,045.5,0.219,748.0,01.17,0.508
2017-05-24 00:40:00,1679E-3,5C000400,-0724,0837,12046,028.9,045.5,0.219,748.0,01.17,0.508
2017-05-24 00:41:00,1818E-3,5C000400,-0724,0837,11984,028.9,045.5,0.219,748.0,01.17,0.508
2017-05-24 00:42:00,1847E-3,5C000400,-0724,0836,12106,028.9,045.5,0.219,748.0,01.17,0.508
2017-05-24 00:43:00,1866E-3,5C000400,-0724,0836,12152,028.9,045.5,0.219,748.0,01.17,0.508
2017-05-24 00:44:00,1590E-3,5C000400,-0724,0837,12197,028.9,045.5,0.219,748.0,01.17,0.508
2017-05-24 00:45:00,1758E-3,5C000400,-0724,0837,12012,028.9,045.5,0.219,748.0,01.17,0.508
2017-05-24 00:46:00,1862E-3,5C000400,-0724,0836,12054,028.9,045.5,0.219,748.0,01.17,0.508
2017-05-24 00:47:00,1805E-3,5C000400,-0724,0837,12138,029.0,045.5,0.219,748.0,01.17,0.508
2017-05-24 00:48:00,1844E-3,5C000400,-0724,0838,12197,029.0,045.5,0.219,747.9,01.17,0.508
2017-05-24 00:49:00,1804E-3,5C000400,-0724,0837,12019,029.0,045.5,0.219,747.9,01.17,0.508
2017-05-24 00:50:00,1657E-3,5C000400,-0724,0837,11995,029.0,045.5,0.218,747.9,01.17,0.508
2017-05-24 00:51:00,1764E-3,5C000400,-0724,0838,12059,029.0,045.5,0.219,747.9,01.17,0.508
2017-05-24 00:52:00,1911E-3,5C000400,-0724,0837,12010,029.0,045.5,0.219,748.0,01.17,0.508
2017-05-24 00:53:00,1822E-3,5C000400,-0724,0836,11964,029.0,045.5,0.219,747.9,01.17,0.508
2017-05-24 00:54:00,1644E-3,5C000400,-0724,0838,12073,029.0,045.5,0.219,747.9,01.17,0.508
2017-05-24 00:55:00,1730E-3,5C000400,-0724,0836,12041,029.0,045.5,0.219,747.9,01.17,0.508
2017-05-24 00:56:00,1716E-3,5C000400,-0724,0836,11929,029.0,045.5,0.218,747.9,01.17,0.508
2017-05-24 00:57:00,1693E-3,5C000400,-0724,0836,12125,029.0,045.5,0.218,747.9,01.17,0.508
2017-05-24 00:58:00,1731E-3,5C000400,-0724,0836,12156,029.0,045.5,0.219,747.9,01.17,0.508
2017-05-24 00:59:00,1821E-3,5C000400,-0724,0836,12057,029.1,045.5,0.219,747.9,01.17,0.508
2017-05-24 01:00:00,1810E-3,5C000400,-0724,0837,11007,029.1,045.5,0.219,747.9,01.17,0.508
2017-05-24 01:01:00,1897E-3,5C000400,-0724,0837,12079,029.1,045.5,0.219,747.9,01.17,0.508
2017-05-24 01:02:00,1814E-3,5C000400,-0724,0837,12034,029.1,045.5,0.218,747.9,01.17,0.508
2017-05-24 01:03:00,1984E-3,5C000400,-0724,0836,12135,029.1,045.5,0.218,747.8,01.17,0.508
2017-05-24 01:04:00,1868E-3,5C000400,-0724,0836,12001,029.1,045.5,0.219,747.8,01.17,0.508
2017-05-24 01:05:00,1777E-3,5C000400,-0724,0838,12110,029.1,045.5,0.219,747.8,01.17,0.508
2017-05-24 01:06:00,1916E-3,5C000400,-0724,0837,12015,029.1,045.5,0.219,747.8,01.17,0.508
2017-05-24 01:07:00,1745E-3,5C000400,-0724,0836,12261,029.1,045.5,0.218,747.8,01.17,0.508
2017-05-24 01:08:00,1884E-3,5C000400,-0724,0837,11967,029.1,045.5,0.218,747.8,01.17,0.508
2017-05-24 01:09:00,1749E-3,5C000400,-0724,0837,11037,029.1,045.5,0.218,747.8,01.17,0.508
2017-05-24 01:10:00,1810E-3,5C000400,-0724,0837,12107,029.1,045.5,0.219,747.8,01.17,0.508
2017-05-24 01:11:00,1753E-3,5C000400,-0724,0836,11913,029.1,045.5,0.219,747.8,01.17,0.508
2017-05-24 01:12:00,1802E-3,5C000400,-0724,0837,12105,029.2,045.5,0.219,747.8,01.17,0.508
2017-05-24 01:13:00,1805E-3,5C000400,-0724,0837,12048,029.2,045.5,0.218,747.8,01.17,0.508
2017-05-24 01:14:00,1771E-3,5C000400,-0724,0836,12027,029.2,045.5,0.219,747.8,01.17,0.508
2017-05-24 01:15:00,1848E-3,5C000400,-0724,0837,12067,029.2,045.5,0.218,747.8,01.17,0.508
2017-05-24 01:16:00,1799E-3,5C000400,-0724,0837,12061,029.2,045.5,0.218,747.8,01.17,0.508
2017-05-24 01:17:00,1765E-3,5C000400,-0724,0838,11957,029.2,045.5,0.218,747.8,01.17,0.508
2017-05-24 01:18:00,1835E-3,5C000400,-0724,0836,12056,029.2,045.5,0.218,747.8,01.17,0.508
2017-05-24 01:19:00,1884E-3,5C000400,-0724,0837,12168,029.2,045.5,0.218,747.7,01.17,0.508
2017-05-24 01:20:00,1845E-3,5C000400,-0724,0837,12041,029.2,045.5,0.218,747.7,01.17,0.508
2017-05-24 01:21:00,1829E-3,5C000400,-0724,0837,11932,029.2,045.5,0.218,747.7,01.17,0.508
2017-05-24 01:22:00,1821E-3,5C000400,-0724,0837,12145,029.2,045.5,0.218,747.8,01.17,0.508
2017-05-24 01:23:00,1737E-3,5C000400,-0724,0836,12025,029.2,045.5,0.218,747.7,01.17,0.508
2017-05-24 01:24:00,1805E-3,5C000400,-0724,0836,11985,029.2,045.5,0.218,747.8,01.17,0.508
2017-05-24 01:25:00,1699E-3,5C000400,-0724,0836,12033,029.2,045.5,0.218,747.8,01.17,0.508
2017-05-24 01:26:00,1775E-3,5C000400,-0724,0839,12203,029.2,045.5,0.218,747.8,01.17,0.508
2017-05-24 01:27:00,1833E-3,5C000400,-0724,0836,12056,029.3,045.5,0.218,747.8,01.17,0.508
2017-05-24 01:28:00,1822E-3,5C000400,-0724,0836,12101,029.3,045.5,0.218,747.7,01.17,0.508
2017-05-24 01:29:00,1904E-3,5C000400,-0724,0836,12167,029.2,045.5,0.218,747.7,01.17,0.508
2017-05-24 01:30:00,1837E-3,5C000400,-0724,0836,11927,029.3,045.5,0.218,747.7,01.17,0.508
2017-05-24 01:31:00,1911E-3,5C000400,-0724,0837,12050,029.3,045.5,0.218,747.7,01.17,0.508
2017-05-24 01:32:00,1756E-3,5C000400,-0724,0836,11954,029.3,045.5,0.218,747.7,01.17,0.508
2017-05-24 01:33:00,1847E-3,5C000400,-0724,0837,12053,029.3,045.5,0.218,747.7,01.17,0.508
2017-05-24 01:34:00,1737E-3,5C000400,-0724,0836,11000,029.3,045.5,0.218,747.7,01.17,0.508
2017-05-24 01:35:00,1925E-3,5C000400,-0724,0837,12162,029.3,045.5,0.218,747.6,01.17,0.508
2017-05-24 01:36:00,1875E-3,5C000400,-0724,0838,12014,029.3,045.5,0.218,747.7,01.17,0.508
2017-05-24 01:37:00,1751E-3,5C000400,-0724,0837,11981,029.3,045.5,0.218,747.6,01.17,0.508
2017-05-24 01:38:00,1794E-3,5C000400,-0724,0836,12180,029.3,045.5,0.218,747.6,01.17,0.508
2017-05-24 01:39:00,1804E-3,5C000400,-0724,0836,12111,029.3,045.5,0.218,747.6,01.17,0.508
2017-05-24 01:40:00,1830E-3,5C000400,-0724,0837,12012,029.3,045.5,0.218,747.6,01.17,0.508
2017-05-24 01:41:00,1854E-3,5C000400,-0724,0837,12122,029.3,045.5,0.218,747.6,01.17,0.508
2017-05-24 01:42:00,1751E-3,5C000400,-0724,0836,12119,029.3,045.5,0.218,747.6,01.17,0.508
2017-05-24 01:43:00,1816E-3,5C000400,-0724,0836,12208,029.3,045.5,0.218,747.5,01.17,0.508
2017-05-24 01:44:00,1708E-3,5C000400,-0724,0837,12074,029.3,045.5,0.218,747.5,01.17,0.508
2017-05-24 01:45:00,1947E-3,5C000400,-0724,0837,12126,029.4,045.5,0.218,747.5,01.17,0.508
2017-05-24 01:46:00,1861E-3,5C000400,-0724,0837,12100,029.4,045.5,0.218,747.5,01.17,0.508
2017-05-24 01:47:00,1766E-3,5C000400,-0724,0836,12083,029.4,045.5,0.218,747.5,01.17,0.508
2017-05-24 01:48:00,1766E-3,5C000400,-0724,0837,12042,029.4,045.5,0.218,747.5,01.17,0.508
2017-05-24 01:49:00,1797E-3,5C000400,-0724,0836,12143,029.4,045.5,0.218,747.5,01.17,0.508
2017-05-24 01:50:00,1982E-3,5C000400,-0724,0837,12171,029.4,045.5,0.218,747.5,01.17,0.508
2017-05-24 01:51:00,1866E-3,5C000400,-0724,0837,12101,029.4,045.5,0.218,747.5,01.17,0.508
2017-05-24 01:52:00,1874E-3,5C000400,-0724,0837,11902,029.4,045.5,0.217,747.5,01.17,0.508
2017-05-24 01:53:00,1742E-3,5C000400,-0724,0837,12053,029.4,045.5,0.217,747.5,01.17,0.508
2017-05-24 01:54:00,1787E-3,5C000400,-0724,0837,12057,029.4,045.5,0.218,747.5,01.17,0.508
2017-05-24 01:55:00,1832E-3,5C000400,-0724,0837,12055,029.4,045.5,0.218,747.5,01.17,0.508
2017-05-24 01:56:00,1823E-3,5C000400,-0724,0837,12012,029.4,045.5,0.218,747.5,01.17,0.508
2017-05-24 01:57:00,1808E-3,5C000400,-0724,0837,12063,029.4,045.5,0.218,747.5,01.17,0.508
2017-05-24 01:58:00,1784E-3,5C000400,-0724,0836,12034,029.4,045.5,0.218,747.5,01.17,0.508
2017-05-24 01:59:00,1814E-3,5C000400,-0724,0836,11929,029.4,045.5,0.218,747.5,01.17,0.508
2017-05-24 02:00:00,1876E-3,5C000400,-0724,0836,11964,029.5,045.5,0.218,747.5,01.17,0.508
2017-05-24 02:01:00,1867E-3,5C000400,-0724,0836,11945,029.5,045.5,0.218,747.5,01.17,0.508
2017-05-24 02:02:00,1937E-3,5C000400,-0724,0837,12115,029.5,045.5,0.217,747.5,01.17,0.508
2017-05-24 02:03:00,1856E-3,5C000400,-0724,0837,12147,029.5,045.5,0.217,747.5,01.17,0.508
2017-05-24 02:04:00,1826E-3,5C000400,-0724,0836,12113,029.5,045.5,0.217,747.4,01.17,0.508
2017-05-24 02:05:00,1802E-3,5C000400,-0724,0837,12100,029.5,045.5,0.218,747.5,01.17,0.508
2017-05-24 02:06:00,1850E-3,5C000400,-0724,0836,12067,029.5,045.5,0.218,747.5,01.17,0.508
2017-05-24 02:07:00,1781E-3,5C000400,-0724,0837,11913,029.5,045.5,0.218,747.4,01.17,0.508
2017-05-24 02:08:00,1838E-3,5C000400,-0724,0837,11903,029.5,045.5,0.218,747.4,01.17,0.508
2017-05-24 02:09:00,1699E-3,5C000400,-0724,0837,12098,029.6,045.5,0.218,747.4,01.17,0.508
2017-05-24 02:10:00,1876E-3,5C000400,-0724,0837,12067,029.6,045.5,0.218,747.3,01.17,0.508
2017-05-24 02:11:00,1702E-3,5C000400,-0724,0837,12155,029.6,045.5,0.218,747.4,01.17,0.508
2017-05-24 02:12:00,1847E-3,5C000400,-0724,0837,12066,029.6,045.5,0.218,747.3,01.17,0.508
2017-05-24 02:13:00,1832E-3,5C000400,-0724,0837,12108,029.6,045.5,0.217,747.4,01.17,0.508
2017-05-24 02:14:00,1805E-3,5C000400,-0724,0837,12136,029.6,045.5,0.217,747.4,01.17,0.508
2017-05-24 02:15:00,1736E-3,5C000400,-0724,0837,12148,029.6,045.5,0.217,747.4,01.17,0.508
2017-05-24 02:16:00,1960E-3,5C000400,-0724,0837,12047,029.6,045.5,0.217,747.4,01.17,0.508
2017-05-24 02:17:00,1778E-3,5C000400,-0724,0837,11960,029.6,045.5,0.217,747.4,01.17,0.508
2017-05-24 02:18:00,1861E-3,5C000400,-0724,0836,12109,029.6,045.5,0.217,747.4,01.17,0.508
2017-05-24 02:19:00,1848E-3,5C000400,-0724,0836,12083,029.6,045.5,0.217,747.4,01.17,0.508
2017-05-24 02:20:00,1827E-3,5C000400,-0724,0836,12116,029.6,045.5,0.217,747.4,01.17,0.508
2017-05-24 02:21:00,1913E-3,5C000400,-0724,0837,11996,029.6,045.5,0.217,747.3,01.17,0.508
2017-05-24 02:22:00,1804E-3,5C000400,-0724,0837,11883,029.6,045.5,0.217,747.4,01.17,0.508
2017-05-24 02:23:00,1645E-3,5C000400,-0724,0837,12079,029.7,045.5,0.217,747.4,01.17,0.508
2017-05-24 02:24:00,1829E-3,5C000400,-0724,0837,12192,029.7,045.5,0.217,747.3,01.17,0.508
2017-05-24 02:25:00,1680E-3,5C000400,-0724,0836,12024,029.7,045.5,0.217,747.3,01.17,0.508
2017-05-24 02:26:00,1873E-3,5C000400,-0724,0836,12106,029.7,045.5,0.217,747.3,01.17,0.508
2017-05-24 02:27:00,1759E-3,5C000400,-0724,0837,12130,029.7,045.5,0.217,747.3,01.17,0.508
2017-05-24 02:28:00,1793E-3,5C000400,-0724,0836,12069,029.7,045.5,0.217,747.3,01.17,0.508
2017-05-24 02:29:00,1836E-3,5C000400,-0724,0837,12069,029.7,045.5,0.217,747.3,01.17,0.508
2017-05-24 02:30:00,1781E-3,5C000400,-0724,0837,12123,029.8,045.5,0.217,747.3,01.17,0.508
2017-05-24 02:31:00,1884E-3,5C000400,-0724,0838,12067,029.7,045.5,0.217,747.3,01.17,0.508
2017-05-24 02:32:00,1818E-3,5C000400,-0724,0837,12150,029.7,045.5,0.217,747.3,01.17,0.508
2017-05-24 02:33:00,1806E-3,5C000400,-0724,0837,12002,029.7,045.5,0.217,747.3,01.17,0.508
2017-05-24 02:34:00,1845E-3,5C000400,-0724,0836,12080,029.8,045.5,0.217,747.3,01.17,0.508
2017-05-24 02:35:00,1734E-3,5C000400,-0724,0836,12030,029.8,045.5,0.217,747.2,01.17,0.508
2017-05-24 02:36:00,1863E-3,5C000400,-0724,0836,11990,029.8,045.5,0.217,747.3,01.17,0.508
2017-05-24 02:37:00,1817E-3,5C000400,-0724,0837,12144,029.8,045.5,0.217,747.3,01.17,0.508
2017-05-24 02:38:00,1724E-3,5C000400,-0724,0837,12110,029.8,045.5,0.217,747.3,01.17,0.508
2017-05-24 02:39:00,1905E-3,5C000400,-0724,0837,12073,029.8,045.5,0.217,747.3,01.17,0.508
2017-05-24 02:40:00,1880E-3,5C000400,-0724,0836,12056,029.8,045.5,0.217,747.3,01.17,0.508
2017-05-24 02:41:00,1774E-3,5C000400,-0724,0837,12010,029.8,045.5,0.217,747.2,01.17,0.508
2017-05-24 02:42:00,1703E-3,5C000400,-0724,0836,11952,029.8,045.5,0.217,747.2,01.17,0.508
2017-05-24 02:43:00,1839E-3,5C000400,-0724,0837,11764,029.8,045.5,0.217,747.2,01.17,0.508
2017-05-24 02:44:00,1739E-3,5C000400,-0724,0837,11931,029.8,045.5,0.217,747.2,01.17,0.508
2017-05-24 02:45:00,1662E-3,5C000400,-0724,0836,11980,029.8,045.5,0.217,747.2,01.17,0.508
2017-05-24 02:46:00,1978E-3,5C000400,-0724,0836,12042,029.8,045.5,0.217,747.2,01.17,0.508
2017-05-24 02:47:00,1826E-3,5C000400,-0724,0836,12124,029.8,045.5,0.217,747.2,01.17,0.508
2017-05-24 02:48:00,1812E-3,5C000400,-0724,0836,12064,029.8,045.5,0.217,747.2,01.17,0.508
2017-05-24 02:49:00,1810E-3,5C000400,-0724,0836,12047,029.9,045.5,0.217,747.2,01.17,0.508
2017-05-24 02:50:00,1670E-3,5C000400,-0724,0837,12193,029.9,045.5,0.217,747.2,01.17,0.508
2017-05-24 02:51:00,1694E-3,5C000400,-0724,0837,12148,029.9,045.5,0.217,747.2,01.17,0.508
2017-05-24 02:52:00,1807E-3,5C000400,-0724,0837,11948,029.9,045.5,0.217,747.2,01.17,0.508
2017-05-24 02:53:00,1837E-3,5C000400,-0724,0837,11994,029.9,045.5,0.217,747.1,01.17,0.508
2017-05-24 02:54:00,1787E-3,5C000400,-0724,0837,12052,029.9,045.5,0.216,747.1,01.17,0.508
2017-05-24 02:55:00,1836E-3,5C000400,-0724,0837,11977,029.9,045.5,0.216,747.1,01.17,0.508
2017-05-24 02:56:00,1832E-3,5C000400,-0724,0837,12095,029.9,045.5,0.216,747.1,01.17,0.508
2017-05-24 02:57:00,1822E-3,5C000400,-0724,0836,12088,029.9,045.5,0.216,747.1,01.17,0.508
2017-05-24 02:58:00,1829E-3,5C000400,-0724,0837,12093,029.9,045.5,0.216,747.1,01.17,0.508
2017-05-24 02:59:00,1673E-3,5C000400,-0724,0837,11911,030.0,045.5,0.216,747.1,01.17,0.508
2017-05-24 03:00:00,1858E-3,5C000400,-0724,0837,12172,030.0,045.5,0.216,747.1,01.17,0.508
2017-05-24 03:01:00,1830E-3,5C000400,-0724,0837,12060,030.0,045.5,0.216,747.0,01.17,0.508
2017-05-24 03:02:00,1831E-3,5C000400,-0724,0836,12075,030.0,045.5,0.217,747.0,01.17,0.508
2017-05-24 03:03:00,1766E-3,5C000400,-0724,0837,11965,030.0,045.5,0.217,747.0,01.17,0.508
2017-05-24 03:04:00,1905E-3,5C000400,-0724,0837,12044,030.0,045.5,0.216,747.0,01.17,0.508
2017-05-24 03:05:00,1841E-3,5C000400,-0724,0837,12077,030.0,045.5,0.217,747.0,01.17,0.508
2017-05-24 03:06:00,1932E-3,5C000400,-0724,0837,12027,030.0,045.5,0.217,747.0,01.17,0.508
2017-05-24 03:07:00,1919E-3,5C000400,-0724,0838,12089,030.0,045.5,0.216,747.0,01.17,0.508
2017-05-24 03:08:00,1771E-3,5C000400,-0724,0836,12017,030.0,045.5,0.216,747.0,01.17,0.508
2017-05-24 03:09:00,1749E-3,5C000400,-0724,0837,12051,030.1,045.5,0.217,747.0,01.17,0.508
2017-05-24 03:10:00,1800E-3,5C000400,-0724,0838,12096,030.1,045.5,0.217,747.0,01.17,0.508
2017-05-24 03:11:00,1783E-3,5C000400,-0724,0837,12144,030.1,045.5,0.217,746.9,01.17,0.508
2017-05-24 03:12:00,1939E-3,5C000400,-0724,0836,12224,030.1,045.5,0.217,746.9,01.17,0.508
2017-05-24 03:13:00,1809E-3,5C000400,-0724,0838,12091,030.1,045.5,0.216,746.9,01.17,0.508
2017-05-24 03:14:00,1863E-3,5C000400,-0724,0837,12032,030.1,045.5,0.216,746.9,01.17,0.508
2017-05-24 03:15:00,1871E-3,5C000400,-0724,0836,12210,030.1,045.5,0.216,746.9,01.17,0.508
2017-05-24 03:16:00,1867E-3,5C000400,-0724,0837,12028,030.1,045.5,0.216,746.9,01.17,0.508
2017-05-24 03:17:00,1938E-3,5C000400,-0724,0837,12081,030.1,045.5,0.216,746.9,01.17,0.508
2017-05-24 03:18:00,1784E-3,5C000400,-0724,0837,11886,030.1,045.5,0.216,746.8,01.17,0.508
2017-05-24 03:19:00,1959E-3,5C000400,-0724,0838,12055,030.1,045.5,0.216,746.9,01.17,0.508
2017-05-24 03:20:00,1794E-3,5C000400,-0724,0837,12107,030.2,045.5,0.216,746.9,01.17,0.508
2017-05-24 03:21:00,1796E-3,5C000400,-0724,0837,12051,030.2,045.5,0.216,746.8,01.17,0.508
2017-05-24 03:22:00,1936E-3,5C000400,-0724,0837,11947,030.2,045.5,0.216,746.8,01.17,0.508
2017-05-24 03:23:00,1906E-3,5C000400,-0724,0837,12150,030.2,045.5,0.216,746.8,01.17,0.508
2017-05-24 03:24:00,1937E-3,5C000400,-0724,0837,11975,030.2,045.5,0.216,746.8,01.17,0.508
2017-05-24 03:25:00,1806E-3,5C000400,-0724,0837,12103,030.2,045.5,0.216,746.8,01.17,0.508
2017-05-24 03:26:00,1730E-3,5C000400,-0724,0837,12002,030.2,045.5,0.216,746.8,01.17,0.508
2017-05-24 03:27:00,1832E-3,5C000400,-0724,0837,12055,030.2,045.5,0.216,746.8,01.17,0.508
2017-05-24 03:28:00,1884E-3,5C000400,-0724,0837,12069,030.3,045.5,0.216,746.7,01.17,0.508
2017-05-24 03:29:00,1938E-3,5C000400,-0724,0836,12133,030.3,045.5,0.216,746.7,01.17,0.508
2017-05-24 03:30:00,1781E-3,5C000400,-0724,0837,12159,030.3,045.5,0.216,746.7,01.17,0.508
2017-05-24 03:31:00,1836E-3,5C000400,-0724,0836,12071,030.3,045.5,0.216,746.6,01.17,0.508
2017-05-24 03:32:00,1780E-3,5C000400,-0724,0836,11964,030.3,045.5,0.216,746.6,01.17,0.508
2017-05-24 03:33:00,1823E-3,5C000400,-0724,0836,12002,030.3,045.5,0.216,746.6,01.17,0.508
2017-05-24 03:34:00,1673E-3,5C000400,-0724,0838,12244,030.3,045.5,0.216,746.6,01.17,0.508
2017-05-24 03:35:00,1686E-3,5C000400,-0724,0836,11969,030.3,045.5,0.216,746.6,01.17,0.508
2017-05-24 03:36:00,1784E-3,5C000410,-0724,0836,9681,030.3,045.5,0.216,746.6,01.17,0.508
2017-05-24 03:37:00,1881E-3,5C000400,-0724,0838,12204,030.3,045.5,0.216,746.6,01.17,0.508
2017-05-24 03:38:00,1832E-3,5C000400,-0724,0836,12102,030.3,045.5,0.216,746.6,01.17,0.508
2017-05-24 03:39:00,1850E-3,5C000400,-0724,0837,11964,030.4,045.5,0.216,746.6,01.17,0.508
2017-05-24 03:40:00,2000E-3,5C000400,-0724,0836,11954,030.4,045.5,0.216,746.6,01.17,0.508
2017-05-24 03:41:00,1888E-3,5C000400,-0724,0836,12020,030.4,045.5,0.215,746.6,01.17,0.508
2017-05-24 03:42:00,1851E-3,5C000400,-0724,0837,12120,030.4,045.5,0.215,746.7,01.17,0.508
2017-05-24 03:43:00,1899E-3,5C000400,-0724,0838,11995,030.4,045.5,0.215,746.6,01.17,0.508
2017-05-24 03:44:00,1841E-3,5C000400,-0724,0836,12088,030.4,045.5,0.215,746.6,01.17,0.508
2017-05-24 03:45:00,1901E-3,5C000400,-0724,0837,12013,030.4,045.5,0.215,746.6,01.17,0.508
2017-05-24 03:46:00,1829E-3,5C000400,-0724,0836,11996,030.4,045.5,0.215,746.6,01.17,0.508
2017-05-24 03:47:00,1814E-3,5C000400,-0724,0837,12062,030.4,045.5,0.215,746.6,01.17,0.508
2017-05-24 03:48:00,1916E-3,5C000400,-0724,0837,12031,030.5,045.5,0.215,746.6,01.17,0.508
2017-05-24 03:49:00,1876E-3,5C000400,-0724,0837,11912,030.5,045.5,0.215,746.6,01.17,0.508
2017-05-24 03:50:00,1718E-3,5C000400,-0724,0836,12105,030.5,045.5,0.215,746.6,01.17,0.508
2017-05-24 03:51:00,1771E-3,5C000400,-0724,0836,12224,030.5,045.5,0.215,746.6,01.17,0.508
2017-05-24 03:52:00,1761E-3,5C000400,-0724,0837,12089,030.5,045.5,0.215,746.5,01.17,0.508
2017-05-24 03:53:00,1877E-3,5C000400,-0724,0837,12093,030.5,045.6,0.215,746.5,01.17,0.508
2017-05-24 03:54:00,1887E-3,5C000400,-0724,0837,12253,030.5,045.5,0.215,746.5,01.17,0.508
2017-05-24 03:55:00,1869E-3,5C000400,-0724,0837,12125,030.5,045.5,0.215,746.5,01.17,0.508
2017-05-24 03:56:00,1721E-3,5C000400,-0724,0836,12060,030.5,045.5,0.215,746.5,01.17,0.508
2017-05-24 03:57:00,1907E-3,5C000400,-0724,0837,12165,030.5,045.5,0.215,746.5,01.17,0.508
2017-05-24 03:58:00,1880E-3,5C000400,-0724,0837,12197,030.5,045.5,0.215,746.5,01.17,0.508
2017-05-24 03:59:00,1804E-3,5C000400,-0724,0837,11999,030.5,045.6,0.215,746.5,01.17,0.508
2017-05-24 04:00:00,1939E-3,5C000400,-0724,0837,12110,030.6,045.5,0.215,746.5,01.17,0.508
2017-05-24 04:01:00,1776E-3,5C000400,-0724,0837,11126,030.6,045.5,0.215,746.5,01.17,0.508
2017-05-24 04:02:00,1867E-3,5C000400,-0724,0836,11992,030.6,045.5,0.215,746.5,01.17,0.508
2017-05-24 04:03:00,1787E-3,5C000400,-0724,0837,12107,030.6,045.6,0.215,746.5,01.17,0.508
2017-05-24 04:04:00,1867E-3,5C000400,-0724,0836,10940,030.6,045.6,0.215,746.4,01.17,0.508
2017-05-24 04:05:00,1763E-3,5C000400,-0724,0837,12070,030.6,045.5,0.215,746.4,01.17,0.508
2017-05-24 04:06:00,1792E-3,5C000400,-0724,0839,12080,030.6,045.5,0.215,746.4,01.17,0.508
2017-05-24 04:07:00,1803E-3,5C000400,-0724,0837,12256,030.6,045.6,0.215,746.4,01.17,0.508
2017-05-24 04:08:00,1907E-3,5C000400,-0724,0836,10911,030.6,045.5,0.215,746.3,01.17,0.508
2017-05-24 04:09:00,1782E-3,5C000400,-0724,0840,12265,030.6,045.5,0.215,746.3,01.17,0.508
2017-05-24 04:10:00,1811E-3,5C000400,-0724,0837,12128,030.6,045.5,0.215,746.3,01.17,0.508
2017-05-24 04:11:00,1827E-3,5C000400,-0724,0837,11895,030.6,045.6,0.215,746.3,01.17,0.508
2017-05-24 04:12:00,1739E-3,5C000400,-0724,0837,12066,030.6,045.6,0.215,746.3,01.17,0.508
2017-05-24 04:13:00,1731E-3,5C000400,-0724,0836,12095,030.6,045.5,0.215,746.3,01.17,0.508
2017-05-24 04:14:00,1795E-3,5C000400,-0724,0837,12093,030.7,045.5,0.215,746.3,01.17,0.508
2017-05-24 04:15:00,1848E-3,5C000400,-0724,0837,12086,030.7,045.5,0.215,746.3,01.17,0.508
2017-05-24 04:16:00,1944E-3,5C000400,-0724,0837,11997,030.7,045.5,0.215,746.3,01.17,0.508
2017-05-24 04:17:00,1832E-3,5C000400,-0724,0838,11957,030.7,045.6,0.215,746.3,01.17,0.508
2017-05-24 04:18:00,1738E-3,5C000400,-0724,0839,12092,030.7,045.5,0.215,746.3,01.17,0.508
2017-05-24 04:19:00,1811E-3,5C000400,-0724,0838,12137,030.7,045.5,0.215,746.3,01.17,0.508
2017-05-24 04:20:00,1917E-3,5C000400,-0724,0837,12109,030.7,045.5,0.215,746.3,01.17,0.508